| time (UTC) | temp F | wind direction | speed MPH | gust MPH | rain 1hr in | rain 24hr in | rain mn in | humidity % | barometer mb |
| 20260901183058 | 90 | 0 | 2.0 | 12.0 | 0.00 | 0.01 | 0.00 | 60 | 1014.9 |
| 20260901181555 | 89 | 29 | 2.0 | 8.0 | 0.00 | 0.01 | 0.00 | 64 | 1014.9 |
| 20260901180100 | 89 | 57 | 5.0 | 11.0 | 0.00 | 0.01 | 0.00 | 63 | 1015.0 |
| 20260901174601 | 88 | 317 | 6.0 | 12.0 | 0.00 | 0.01 | 0.00 | 66 | 1015.3 |
| 20260901173101 | 88 | 11 | 2.0 | 6.0 | 0.00 | 0.01 | 0.00 | 66 | 1015.7 |
| 20260901171612 | 87 | 14 | 7.0 | 12.0 | 0.00 | 0.01 | 0.00 | 67 | 1016.0 |
| 20260901170106 | 88 | 25 | 2.0 | 7.0 | 0.00 | 0.01 | 0.00 | 67 | 1016.2 |
| 20260901164557 | 87 | 109 | 3.0 | 12.0 | 0.00 | 0.01 | 0.00 | 67 | 1016.3 |
| 20260901163106 | 87 | 82 | 2.0 | 13.0 | 0.00 | 0.01 | 0.00 | 67 | 1016.8 |
| 20260901161603 | 87 | 34 | 3.0 | 7.0 | 0.00 | 0.01 | 0.00 | 68 | 1016.7 |
| 20260901160059 | 87 | 24 | 2.0 | 8.0 | 0.00 | 0.01 | 0.00 | 68 | 1016.6 |
| 20260901154559 | 87 | 68 | 3.0 | 8.0 | 0.00 | 0.01 | 0.00 | 69 | 1016.9 |
| 20260901153101 | 86 | 78 | 2.0 | 8.0 | 0.00 | 0.01 | 0.00 | 69 | 1017.0 |
| 20260901151559 | 87 | 48 | 1.0 | 8.0 | 0.00 | 0.01 | 0.00 | 68 | 1017.0 |
| 20260901150107 | 86 | 119 | 1.0 | 8.0 | 0.00 | 0.01 | 0.00 | 71 | 1017.2 |
| 20260901144559 | 86 | 78 | 1.0 | 9.0 | 0.00 | 0.01 | 0.00 | 72 | 1017.2 |
| 20260901143114 | 85 | 44 | 2.0 | 8.0 | 0.00 | 0.01 | 0.00 | 73 | 1017.0 |
| 20260901141556 | 84 | 82 | 2.0 | 5.0 | 0.00 | 0.01 | 0.00 | 75 | 1016.8 |
| 20260901140101 | 84 | 68 | 1.0 | 4.0 | 0.00 | 0.01 | 0.00 | 77 | 1017.0 |
| 20260901134619 | 82 | 0 | 0.0 | 6.0 | 0.00 | 0.01 | 0.00 | 81 | 1017.0 |
| 20260901133102 | 81 | 89 | 0.0 | 6.0 | 0.00 | 0.01 | 0.00 | 83 | 1017.0 |
| 20260901131559 | 80 | 60 | 1.0 | 3.0 | 0.00 | 0.01 | 0.00 | 84 | 1016.9 |
| 20260901130057 | 79 | 0 | 0.0 | 5.0 | 0.00 | 0.01 | 0.00 | 87 | 1016.7 |
| 20260901124603 | 77 | 0 | 0.0 | 4.0 | 0.00 | 0.01 | 0.00 | 88 | 1016.4 |
| 20260901123100 | 77 | 0 | 0.0 | 2.0 | 0.00 | 0.01 | 0.00 | 89 | 1016.3 |
| 20260901121609 | 76 | 0 | 0.0 | 3.0 | 0.00 | 0.01 | 0.00 | 89 | 1016.3 |
| 20260901120056 | 77 | 92 | 0.0 | 3.0 | 0.00 | 0.01 | 0.00 | 89 | 1016.3 |
| 20260901114602 | 77 | 0 | 0.0 | 4.0 | 0.00 | 0.01 | 0.00 | 89 | 1016.2 |
| 20260901113052 | 77 | 80 | 1.0 | 4.0 | 0.00 | 0.01 | 0.00 | 89 | 1016.1 |
| 20260901111559 | 77 | 0 | 0.0 | 6.0 | 0.00 | 0.01 | 0.00 | 89 | 1016.0 |
| 20260901110100 | 77 | 58 | 1.0 | 4.0 | 0.00 | 0.01 | 0.00 | 88 | 1015.7 |
| 20260901104557 | 78 | 58 | 0.0 | 3.0 | 0.00 | 0.01 | 0.00 | 88 | 1015.8 |
| 20260901103104 | 78 | 0 | 0.0 | 2.0 | 0.00 | 0.01 | 0.00 | 88 | 1015.7 |
| 20260901101559 | 78 | 0 | 0.0 | 2.0 | 0.00 | 0.01 | 0.00 | 87 | 1015.7 |
| 20260901100059 | 79 | 0 | 0.0 | 6.0 | 0.00 | 0.01 | 0.00 | 87 | 1015.7 |
| 20260901094558 | 79 | 98 | 1.0 | 6.0 | 0.00 | 0.01 | 0.00 | 86 | 1015.8 |
| 20260901093054 | 79 | 74 | 0.0 | 4.0 | 0.00 | 0.01 | 0.00 | 86 | 1015.9 |
| 20260901091601 | 79 | 0 | 0.0 | 0.0 | 0.00 | 0.01 | 0.00 | 86 | 1015.8 |
| 20260901090055 | 80 | 0 | 0.0 | 0.0 | 0.00 | 0.01 | 0.00 | 85 | 1015.9 |
| 20260901084555 | 80 | 0 | 0.0 | 0.0 | 0.00 | 0.01 | 0.00 | 85 | 1015.9 |
| 20260901083052 | 80 | 0 | 0.0 | 0.0 | 0.00 | 0.01 | 0.00 | 85 | 1016.0 |
| 20260901081557 | 80 | 0 | 0.0 | 0.0 | 0.00 | 0.01 | 0.00 | 85 | 1015.9 |
| 20260901080058 | 80 | 0 | 0.0 | 0.0 | 0.00 | 0.01 | 0.00 | 84 | 1015.8 |
| 20260901074609 | 81 | 0 | 0.0 | 1.0 | 0.00 | 0.01 | 0.00 | 83 | 1015.9 |
| 20260901073101 | 81 | 0 | 0.0 | 2.0 | 0.00 | 0.01 | 0.00 | 82 | 1015.9 |
| 20260901071601 | 82 | 0 | 0.0 | 3.0 | 0.00 | 0.01 | 0.00 | 82 | 1016.0 |
| 20260901070057 | 82 | 0 | 1.0 | 5.0 | 0.00 | 0.01 | 0.00 | 81 | 1016.0 |
| 20260901064552 | 82 | 0 | 1.0 | 4.0 | 0.00 | 0.01 | 0.00 | 81 | 1016.0 |
| 20260901063102 | 83 | 111 | 1.0 | 9.0 | 0.00 | 0.01 | 0.00 | 81 | 1016.2 |
| 20260901061557 | 83 | 166 | 5.0 | 9.0 | 0.00 | 0.01 | 0.00 | 82 | 1016.1 |
| 20260901060100 | 83 | 174 | 7.0 | 10.0 | 0.00 | 0.01 | 0.00 | 82 | 1016.3 |
| 20260901054554 | 83 | 165 | 7.0 | 11.0 | 0.00 | 0.01 | 0.00 | 82 | 1016.2 |
| 20260901053104 | 83 | 172 | 7.0 | 10.0 | 0.00 | 0.01 | 0.00 | 82 | 1016.2 |
| 20260901051600 | 83 | 180 | 8.0 | 10.0 | 0.00 | 0.01 | 0.00 | 82 | 1016.0 |
| 20260901050106 | 83 | 171 | 10.0 | 13.0 | 0.00 | 0.01 | 0.00 | 81 | 1016.0 |
| 20260901044557 | 84 | 171 | 10.0 | 14.0 | 0.00 | 0.01 | 0.01 | 81 | 1015.9 |
| 20260901043059 | 84 | 158 | 11.0 | 15.0 | 0.00 | 0.01 | 0.01 | 80 | 1015.9 |
| 20260901041559 | 84 | 169 | 12.0 | 17.0 | 0.00 | 0.01 | 0.01 | 80 | 1015.9 |
| 20260901040113 | 85 | 175 | 11.0 | 16.0 | 0.00 | 0.01 | 0.01 | 81 | 1015.9 |
| 20260901034601 | 85 | 175 | 12.0 | 17.0 | 0.00 | 0.01 | 0.01 | 80 | 1015.8 |
| 20260901033059 | 85 | 189 | 15.0 | 20.0 | 0.00 | 0.01 | 0.01 | 79 | 1015.6 |
| 20260901031559 | 86 | 177 | 11.0 | 16.0 | 0.00 | 0.01 | 0.01 | 76 | 1015.5 |
| 20260901024601 | 87 | 161 | 4.0 | 10.0 | 0.00 | 0.01 | 0.01 | 70 | 1015.0 |
| 20260901023101 | 88 | 115 | 4.0 | 9.0 | 0.00 | 0.01 | 0.01 | 68 | 1014.9 |
| 20260901021604 | 89 | 149 | 5.0 | 8.0 | 0.00 | 0.01 | 0.01 | 72 | 1014.6 |
| 20260901020056 | 89 | 203 | 5.0 | 8.0 | 0.00 | 0.01 | 0.01 | 71 | 1014.4 |
| 20260901014602 | 90 | 188 | 6.0 | 8.0 | 0.00 | 0.01 | 0.01 | 68 | 1013.9 |
| 20260901013109 | 90 | 175 | 7.0 | 10.0 | 0.00 | 0.01 | 0.01 | 69 | 1013.9 |
| 20260901011557 | 91 | 181 | 7.0 | 9.0 | 0.00 | 0.01 | 0.01 | 67 | 1013.9 |
| 20260901010110 | 91 | 167 | 8.0 | 10.0 | 0.00 | 0.01 | 0.01 | 66 | 1013.8 |
| 20260901004603 | 92 | 166 | 9.0 | 12.0 | 0.00 | 0.01 | 0.01 | 63 | 1013.9 |
| 20260901003056 | 92 | 163 | 8.0 | 10.0 | 0.00 | 0.01 | 0.01 | 62 | 1014.0 |
| 20260901001556 | 93 | 180 | 7.0 | 10.0 | 0.00 | 0.01 | 0.01 | 63 | 1013.9 |
| 20260901000058 | 93 | 162 | 3.0 | 6.0 | 0.00 | 0.01 | 0.01 | 59 | 1013.8 |
| 20260831234605 | 93 | 174 | 5.0 | 10.0 | 0.00 | 0.01 | 0.01 | 59 | 1014.0 |
| 20260831233107 | 93 | 163 | 8.0 | 12.0 | 0.00 | 0.01 | 0.01 | 57 | 1014.0 |
| 20260831231558 | 94 | 146 | 5.0 | 11.0 | 0.00 | 0.01 | 0.01 | 53 | 1013.8 |
| 20260831224600 | 95 | 148 | 6.0 | 11.0 | 0.00 | 0.01 | 0.01 | 53 | 1013.7 |
| 20260831223103 | 95 | 152 | 9.0 | 13.0 | 0.00 | 0.01 | 0.01 | 56 | 1013.8 |
| 20260831221629 | 95 | 191 | 8.0 | 10.0 | 0.00 | 0.01 | 0.01 | 52 | 1013.7 |
| 20260831220054 | 95 | 171 | 7.0 | 13.0 | 0.00 | 0.01 | 0.01 | 57 | 1013.8 |
| 20260831214559 | 94 | 222 | 6.0 | 7.0 | 0.00 | 0.01 | 0.01 | 56 | 1013.9 |
| 20260831213054 | 93 | 207 | 7.0 | 9.0 | 0.00 | 0.01 | 0.01 | 60 | 1014.2 |
| 20260831211556 | 92 | 240 | 7.0 | 9.0 | 0.00 | 0.01 | 0.01 | 61 | 1014.4 |
| 20260831204605 | 92 | 286 | 5.0 | 7.0 | 0.00 | 0.01 | 0.01 | 66 | 1014.5 |
| 20260831203128 | 92 | 284 | 5.0 | 6.0 | 0.00 | 0.01 | 0.01 | 62 | 1014.9 |
| 20260831201604 | 91 | 244 | 4.0 | 7.0 | 0.01 | 0.01 | 0.01 | 63 | 1015.2 |
| 20260831200141 | 90 | 236 | 4.0 | 6.0 | 0.01 | 0.01 | 0.01 | 66 | 1015.5 |
| 20260831194617 | 90 | 211 | 6.0 | 8.0 | 0.01 | 0.01 | 0.01 | 70 | 1015.7 |
| 20260831193058 | 89 | 218 | 8.0 | 12.0 | 0.01 | 0.01 | 0.01 | 70 | 1015.9 |
| 20260831191555 | 89 | 245 | 4.0 | 7.0 | 0.00 | 0.00 | 0.00 | 71 | 1016.2 |
| 20260831190104 | 89 | 273 | 5.0 | 8.0 | 0.00 | 0.00 | 0.00 | 69 | 1016.2 |
| 20260831184559 | 88 | 294 | 6.0 | 10.0 | 0.00 | 0.00 | 0.00 | 70 | 1016.5 |